Location: Carrières
(48.9495°N, 2.0407°E)
Time: 18:47:26
(UTC+00:00)

SR - Pass Details

Date: 24 April 2024
Orbit: 579 x 860 km, 66.7° (Epoch: 22 May)

Event Time Altitude Azimuth Distance (km) Brightness Sun altitude
Exits shadow 01:29:20 55° 265° (W) 918 ? -24.3°
Maximum altitude 01:30:11 63° 309° (NW) 842 ? -24.2°
Drops below altitude 10° 01:35:11 10° 31° (NNE) 2,199 ? -23.8°
Sets 01:37:28 0° 35° (NE) 3,075 ? -23.7°
